FW8701 Weather Reports


Display with metric or nautical units.
time (UTC)temp
F
wind
direction
speed
MPH
gust
MPH
rain 1hr
in
rain 24hr
in
rain mn
in
humidity
%
barometer
mb
20260507024945 59 214 3.0 3.0 0.00 0.00 0.00 83 1010.2
20260507024442 60 182 1.0 3.0 0.00 0.00 0.00 81 1010.2
20260507023938 60 168 0.0 1.0 0.00 0.00 0.00 81 1010.0
20260507023435 60 154 0.0 1.0 0.00 0.00 0.00 81 1010.0
20260507022932 60 133 0.0 3.0 0.00 0.00 0.00 80 1010.1
20260507022429 61 273 3.0 5.0 0.00 0.00 0.00 79 1010.1
20260507021924 62 14 2.0 3.0 0.00 0.00 0.00 77 1010.0
20260507021420 62 193 0.0 1.0 0.00 0.00 0.00 77 1010.0
20260507020918 63 192 1.0 1.0 0.00 0.00 0.00 76 1009.9
20260507020414 63 192 0.0 2.0 0.00 0.00 0.00 75 1009.9
20260507015911 63 174 0.0 3.0 0.00 0.00 0.00 75 1009.8
20260507015410 64 184 0.0 3.0 0.00 0.00 0.00 74 1009.7
20260507014906 65 209 0.0 3.0 0.00 0.00 0.00 72 1009.8
20260507014403 65 208 0.0 1.0 0.00 0.00 0.00 72 1009.7
20260507013859 66 159 0.0 3.0 0.00 0.00 0.00 70 1009.7
20260507013356 68 200 0.0 2.0 0.00 0.00 0.00 68 1009.7
20260507012853 68 216 0.0 1.0 0.00 0.00 0.00 67 1009.5
20260507012349 68 209 0.0 1.0 0.00 0.00 0.00 66 1009.7
20260507011847 69 151 1.0 3.0 0.00 0.00 0.00 66 1009.6
20260507011344 69 189 0.0 2.0 0.00 0.00 0.00 64 1009.7
20260507010843 69 227 1.0 1.0 0.00 0.00 0.00 64 1009.6
20260507010339 70 137 2.0 3.0 0.00 0.00 0.00 63 1009.7
20260507005837 70 120 1.0 3.0 0.00 0.00 0.00 63 1009.7
20260507005333 70 106 1.0 5.0 0.00 0.00 0.00 63 1009.4
20260507004830 70 205 1.0 6.0 0.00 0.00 0.00 63 1009.3
20260507004327 71 147 2.0 5.0 0.00 0.00 0.00 63 1009.3
20260507003824 71 264 1.0 2.0 0.00 0.00 0.00 61 1009.4
20260507003320 71 313 2.0 5.0 0.00 0.00 0.00 62 1009.1
20260507002815 71 238 1.0 8.0 0.00 0.00 0.00 63 1009.2
20260507002311 72 123 1.0 6.0 0.00 0.00 0.00 59 1009.2
20260507001809 72 228 3.0 3.0 0.00 0.00 0.00 61 1009.1
20260507001306 73 320 1.0 7.0 0.00 0.00 0.00 58 1009.2
20260507000802 73 203 0.0 1.0 0.00 0.00 0.00 59 1009.2
20260507000259 74 43 1.0 6.0 0.00 0.00 0.00 59 1009.2
20260506235754 75 141 2.0 6.0 0.00 0.00 0.00 57 1009.1
20260506235250 75 128 1.0 6.0 0.00 0.00 0.00 57 1009.2
20260506234748 76 215 0.0 3.0 0.00 0.00 0.00 56 1009.2
20260506234245 74 205 0.0 1.0 0.00 0.00 0.00 60 1008.9
20260506233742 73 317 3.0 7.0 0.00 0.00 0.00 59 1009.3
20260506233238 74 189 0.0 6.0 0.00 0.00 0.00 58 1009.1
20260506232735 74 235 2.0 3.0 0.00 0.00 0.00 59 1009.2
20260506232230 73 207 0.0 3.0 0.00 0.00 0.00 58 1009.1
20260506231727 73 107 3.0 11.0 0.00 0.00 0.00 58 1009.1
20260506231226 73 210 0.0 3.0 0.00 0.00 0.00 58 1009.0
20260506230722 74 118 4.0 8.0 0.00 0.00 0.00 57 1009.2
20260506230219 75 334 4.0 10.0 0.00 0.00 0.00 56 1009.1
20260506225716 75 26 2.0 6.0 0.00 0.00 0.00 56 1009.2
20260506225213 76 226 2.0 9.0 0.00 0.00 0.00 55 1009.4
20260506224709 77 135 1.0 6.0 0.00 0.00 0.00 53 1009.4
20260506224207 77 15 4.0 6.0 0.00 0.00 0.00 54 1009.3
20260506223702 76 171 2.0 6.0 0.00 0.00 0.00 53 1009.4
20260506223158 76 353 4.0 6.0 0.00 0.00 0.00 54 1009.2
20260506222656 77 23 3.0 6.0 0.00 0.00 0.00 53 1009.2
20260506222151 77 245 2.0 8.0 0.00 0.00 0.00 54 1009.2
20260506221649 77 187 0.0 2.0 0.00 0.00 0.00 55 1009.1
20260506221147 78 315 1.0 6.0 0.00 0.00 0.00 52 1009.4
20260506220643 79 215 0.0 2.0 0.00 0.00 0.00 51 1009.4
20260506220139 78 20 4.0 7.0 0.00 0.00 0.00 52 1009.5
20260506215636 78 155 1.0 7.0 0.00 0.00 0.00 51 1009.8
20260506215131 79 207 1.0 2.0 0.00 0.00 0.00 49 1009.5
20260506214628 78 236 0.0 2.0 0.00 0.00 0.00 52 1009.8
20260506214126 77 266 1.0 7.0 0.00 0.00 0.00 52 1009.9
20260506213624 80 253 2.0 3.0 0.00 0.00 0.00 48 1009.7
20260506213121 79 220 0.0 1.0 0.00 0.00 0.00 50 1009.8
20260506212618 78 103 1.0 5.0 0.00 0.00 0.00 50 1010.0
20260506212113 78 107 1.0 5.0 0.00 0.00 0.00 50 1010.1
20260506211608 77 218 4.0 5.0 0.00 0.00 0.00 52 1009.9
20260506211106 76 202 1.0 2.0 0.00 0.00 0.00 48 1010.0
20260506210603 77 29 4.0 7.0 0.00 0.00 0.00 47 1010.2
20260506210059 78 63 1.0 2.0 0.00 0.00 0.00 47 1010.0
20260506205556 78 259 0.0 1.0 0.00 0.00 0.00 48 1010.2
20260506205051 77 205 1.0 2.0 0.00 0.00 0.00 48 1010.1
20260506204549 77 38 3.0 3.0 0.00 0.00 0.00 49 1010.1
20260506204045 77 355 4.0 5.0 0.00 0.00 0.00 49 1010.2
20260506203544 77 167 1.0 2.0 0.00 0.00 0.00 49 1010.3
20260506203040 77 182 1.0 1.0 0.00 0.00 0.00 48 1010.3
20260506202538 78 35 2.0 2.0 0.00 0.00 0.00 45 1010.4
20260506202033 77 293 1.0 1.0 0.00 0.00 0.00 46 1010.4
20260506201531 76 204 1.0 1.0 0.00 0.00 0.00 49 1010.5
20260506201022 74 193 1.0 5.0 0.00 0.00 0.00 52 1010.7
20260506200518 75 36 2.0 3.0 0.00 0.00 0.00 50 1010.7
20260506200015 75 312 0.0 2.0 0.00 0.00 0.00 53 1010.6
20260506195513 75 224 0.0 1.0 0.00 0.00 0.00 51 1010.9
20260506195009 74 194 0.0 2.0 0.00 0.00 0.00 51 1011.0
20260506194507 73 183 0.0 3.0 0.00 0.00 0.00 54 1010.8
20260506194002 73 109 1.0 3.0 0.00 0.00 0.00 54 1010.9
20260506193500 74 199 2.0 2.0 0.00 0.00 0.00 53 1010.7
20260506192956 73 210 0.0 3.0 0.00 0.00 0.00 56 1010.8
20260506192453 72 177 1.0 3.0 0.00 0.00 0.00 56 1010.9
20260506191949 71 197 1.0 3.0 0.00 0.00 0.00 58 1011.2
20260506191446 71 16 0.0 3.0 0.00 0.00 0.00 57 1011.0
20260506190942 72 217 2.0 3.0 0.00 0.00 0.00 56 1011.2
20260506190439 72 224 0.0 3.0 0.00 0.00 0.00 55 1011.2
20260506185931 73 186 0.0 2.0 0.00 0.00 0.00 56 1011.2
20260506185428 71 230 0.0 2.0 0.00 0.00 0.00 57 1011.2
20260506184925 72 180 1.0 3.0 0.00 0.00 0.00 56 1011.3
20260506184422 71 152 1.0 3.0 0.00 0.00 0.00 57 1011.4
20260506183919 71 207 1.0 2.0 0.00 0.00 0.00 56 1011.3
20260506183414 69 232 0.0 1.0 0.00 0.00 0.00 60 1011.5
20260506182911 69 216 0.0 3.0 0.00 0.00 0.00 61 1011.4
20260506182409 69 220 3.0 5.0 0.00 0.00 0.00 61 1011.4
20260506181906 68 207 0.0 5.0 0.00 0.00 0.00 59 1011.6
20260506181404 69 189 2.0 3.0 0.00 0.00 0.00 59 1011.5
20260506180901 69 197 1.0 3.0 0.00 0.00 0.00 59 1011.7
20260506180357 69 198 1.0 2.0 0.00 0.00 0.00 58 1011.6
20260506175854 69 201 1.0 2.0 0.00 0.00 0.00 63 1011.7
20260506175350 68 219 0.0 2.0 0.00 0.00 0.00 64 1011.8
20260506174847 67 213 1.0 2.0 0.00 0.00 0.00 66 1011.8
20260506174345 67 216 2.0 3.0 0.00 0.00 0.00 64 1011.5
20260506173842 68 270 0.0 2.0 0.00 0.00 0.00 64 1011.8
20260506173339 67 201 0.0 2.0 0.00 0.00 0.00 67 1011.8
20260506172836 66 204 0.0 2.0 0.00 0.00 0.00 65 1011.7
20260506172332 64 216 0.0 1.0 0.00 0.00 0.00 69 1011.8
20260506171830 64 205 0.0 1.0 0.00 0.00 0.00 70 1012.0
20260506171327 65 207 0.0 2.0 0.00 0.00 0.00 68 1012.1
20260506170825 66 268 1.0 2.0 0.00 0.00 0.00 68 1012.2
20260506170320 65 181 0.0 1.0 0.00 0.00 0.00 71 1012.0
20260506165820 63 191 1.0 1.0 0.00 0.00 0.00 72 1012.0
20260506165317 62 195 0.0 1.0 0.00 0.00 0.00 75 1011.8
20260506164813 62 191 0.0 1.0 0.00 0.00 0.00 75 1011.9
20260506164310 62 182 0.0 0.0 0.00 0.00 0.00 74 1011.9
20260506163807 60 180 0.0 1.0 0.00 0.00 0.00 77 1012.2
20260506163302 61 189 0.0 1.0 0.00 0.00 0.00 82 1012.2
20260506162758 60 202 0.0 1.0 0.00 0.00 0.00 83 1012.2
20260506162256 60 204 0.0 2.0 0.00 0.00 0.00 78 1012.1
20260506161753 60 213 0.0 1.0 0.00 0.00 0.00 80 1012.1
20260506161250 61 190 0.0 0.0 0.00 0.00 0.00 77 1012.1
20260506160748 62 185 0.0 1.0 0.00 0.00 0.00 73 1012.2
20260506160244 62 192 0.0 0.0 0.00 0.00 0.00 72 1012.3
20260506155743 59 197 0.0 0.0 0.00 0.00 0.00 86 1012.4
20260506155239 58 198 0.0 0.0 0.00 0.00 0.00 86 1012.2
20260506153347 58 189 0.0 0.0 0.00 0.00 0.00 85 1012.2
20260506152843 58 189 0.0 0.0 0.00 0.00 0.00 83 1012.4
20260506152341 59 188 0.0 0.0 0.00 0.00 0.00 81 1012.0
20260506151839 57 191 0.0 0.0 0.00 0.00 0.00 86 1012.0
20260506151335 56 191 0.0 0.0 0.00 0.00 0.00 88 1012.2
20260506150833 54 191 0.0 0.0 0.00 0.00 0.00 92 1012.2
20260506150329 54 193 0.0 0.0 0.00 0.00 0.00 94 1012.3
20260506145826 53 193 0.0 0.0 0.00 0.00 0.00 96 1012.2
20260506145323 53 193 0.0 0.0 0.00 0.00 0.00 96 1012.3
20260506144820 53 197 0.0 0.0 0.00 0.00 0.00 96 1012.3
20260506144317 53 196 0.0 0.0 0.00 0.00 0.00 96 1012.5
20260506143816 52 196 0.0 0.0 0.00 0.00 0.00 97 1012.4
20260506143312 52 197 0.0 0.0 0.00 0.00 0.00 97 1012.4
20260506142810 52 197 0.0 0.0 0.00 0.00 0.00 97 1012.4
20260506142308 52 197 0.0 0.0 0.00 0.00 0.00 98 1012.4
20260506141806 52 195 0.0 0.0 0.00 0.00 0.00 98 1012.4
20260506141304 52 195 0.0 0.0 0.00 0.00 0.00 98 1012.3
20260506140801 52 195 0.0 0.0 0.00 0.00 0.00 98 1012.5
20260506140258 52 195 0.0 0.0 0.00 0.00 0.00 99 1012.2
20260506135755 51 195 0.0 0.0 0.00 0.00 0.00 99 1012.1
20260506135251 51 195 0.0 0.0 0.00 0.00 0.00 99 1011.9
20260506134748 51 195 0.0 0.0 0.00 0.00 0.00 99 1012.0
20260506134244 51 195 0.0 0.0 0.00 0.00 0.00 99 1011.9
20260506133741 51 197 0.0 0.0 0.00 0.00 0.00 99 1011.8
20260506133238 51 193 0.0 0.0 0.00 0.00 0.00 99 1011.9
20260506132735 51 193 0.0 0.0 0.00 0.00 0.00 99 1011.7
20260506132232 51 193 0.0 0.0 0.00 0.00 0.00 99 1011.7
20260506131730 51 193 0.0 0.0 0.00 0.00 0.00 99 1011.5
20260506131226 51 192 0.0 0.0 0.00 0.00 0.00 99 1011.7
20260506130723 51 191 0.0 0.0 0.00 0.00 0.00 99 1011.8
20260506130220 51 191 0.0 0.0 0.00 0.00 0.00 98 1011.5
20260506125718 51 191 0.0 0.0 0.00 0.00 0.00 98 1011.4
20260506125215 51 191 0.0 0.0 0.00 0.00 0.00 98 1011.3
20260506124713 51 191 0.0 0.0 0.00 0.00 0.00 98 1011.5
20260506124211 51 191 0.0 0.0 0.00 0.00 0.00 98 1011.4
20260506123708 51 191 0.0 0.0 0.00 0.00 0.00 98 1011.3
20260506123207 51 191 0.0 0.0 0.00 0.00 0.00 98 1011.3
20260506122703 51 191 0.0 0.0 0.00 0.00 0.00 98 1011.2
20260506122201 51 191 0.0 0.0 0.00 0.00 0.00 97 1011.4
20260506121659 52 191 0.0 0.0 0.00 0.00 0.00 97 1011.4
20260506121154 52 191 0.0 0.0 0.00 0.00 0.00 97 1011.1
20260506120653 52 191 0.0 0.0 0.00 0.00 0.00 97 1011.1
20260506120150 52 191 0.0 0.0 0.00 0.00 0.00 97 1011.1
20260506115648 52 191 0.0 0.0 0.00 0.00 0.00 97 1011.0
20260506115146 52 191 0.0 0.0 0.00 0.00 0.00 97 1011.0
20260506114643 52 191 0.0 0.0 0.00 0.00 0.00 97 1011.0
20260506114141 52 191 0.0 0.0 0.00 0.00 0.00 97 1011.0
20260506113639 52 191 0.0 0.0 0.00 0.00 0.00 97 1011.0
20260506113136 52 191 0.0 0.0 0.00 0.00 0.00 97 1011.1
20260506112632 52 191 0.0 0.0 0.00 0.00 0.00 97 1011.2
20260506112130 52 191 0.0 0.0 0.00 0.00 0.00 97 1011.0
20260506111627 52 191 0.0 0.0 0.00 0.00 0.00 97 1011.1
20260506111125 52 191 0.0 0.0 0.00 0.00 0.00 97 1010.9
20260506110622 52 191 0.0 0.0 0.00 0.00 0.00 97 1010.9
20260506110120 52 191 0.0 0.0 0.00 0.00 0.00 96 1010.8
20260506105616 52 191 0.0 0.0 0.00 0.00 0.00 96 1010.9
20260506105113 52 191 0.0 0.0 0.00 0.00 0.00 96 1010.7
20260506104611 52 191 0.0 0.0 0.00 0.00 0.00 96 1010.8
20260506104108 52 191 0.0 0.0 0.00 0.00 0.00 96 1010.6
20260506103605 52 191 0.0 0.0 0.00 0.00 0.00 96 1010.8
20260506103102 53 191 0.0 0.0 0.00 0.00 0.00 96 1010.8
20260506102600 53 191 0.0 0.0 0.00 0.00 0.00 96 1010.8
20260506102058 53 191 0.0 0.0 0.00 0.00 0.00 96 1010.8
20260506101554 52 191 0.0 0.0 0.00 0.00 0.00 96 1010.9
20260506101051 52 201 0.0 0.0 0.00 0.00 0.00 96 1010.6
20260506100549 52 201 0.0 0.0 0.00 0.00 0.00 96 1010.8
20260506100047 52 201 0.0 0.0 0.00 0.00 0.00 96 1010.7
20260506095546 52 201 0.0 0.0 0.00 0.00 0.00 96 1010.7
20260506095042 52 201 0.0 0.0 0.00 0.00 0.00 96 1010.8
20260506094540 52 201 0.0 0.0 0.00 0.00 0.00 97 1010.9
20260506094037 52 201 0.0 0.0 0.00 0.00 0.00 97 1010.9
20260506093536 52 201 0.0 0.0 0.00 0.00 0.00 97 1010.8
20260506093033 52 201 0.0 0.0 0.00 0.00 0.00 97 1011.0
20260506092531 52 201 0.0 0.0 0.00 0.00 0.00 96 1010.9
20260506092027 52 201 0.0 0.0 0.00 0.00 0.00 96 1010.8
20260506091526 52 201 0.0 0.0 0.00 0.00 0.00 96 1010.7
20260506091022 52 201 0.0 0.0 0.00 0.00 0.00 96 1010.8
20260506090520 52 201 0.0 0.0 0.00 0.00 0.00 96 1010.8
20260506090016 52 201 0.0 0.0 0.00 0.00 0.00 95 1010.5
20260506085513 52 201 0.0 0.0 0.00 0.00 0.00 95 1010.5
20260506085009 53 201 0.0 0.0 0.00 0.00 0.00 95 1010.7
20260506084506 53 201 0.0 0.0 0.00 0.00 0.00 95 1010.7
20260506084002 53 201 0.0 0.0 0.00 0.00 0.00 95 1010.7
20260506083500 53 202 0.0 0.0 0.00 0.00 0.00 95 1010.6
20260506082957 53 202 0.0 0.0 0.00 0.00 0.00 94 1010.7
20260506082454 53 202 0.0 0.0 0.00 0.00 0.00 94 1010.8
20260506081949 53 202 0.0 0.0 0.00 0.00 0.00 94 1010.9
20260506081448 53 201 0.0 0.0 0.00 0.00 0.00 94 1010.6
20260506080945 53 201 0.0 0.0 0.00 0.00 0.00 94 1010.5
20260506080442 53 202 0.0 0.0 0.00 0.00 0.00 94 1010.7
20260506073426 54 201 0.0 0.0 0.00 0.00 0.00 93 1010.5
20260506072923 54 201 0.0 0.0 0.00 0.00 0.00 92 1010.4
20260506072420 54 201 0.0 0.0 0.00 0.00 0.00 92 1010.4
20260506071918 54 201 0.0 0.0 0.00 0.00 0.00 92 1010.3
20260506071416 54 201 0.0 0.0 0.00 0.00 0.00 92 1010.5
20260506070912 54 201 0.0 0.0 0.00 0.00 0.00 92 1010.4
20260506070409 54 201 0.0 0.0 0.00 0.00 0.00 92 1010.5
20260506062347 54 187 0.0 0.0 0.00 0.00 0.00 92 1010.1
20260506061842 54 187 0.0 0.0 0.00 0.00 0.00 91 1010.0
20260506061339 54 187 0.0 0.0 0.00 0.00 0.00 91 1010.1
20260506060837 54 187 0.0 0.0 0.00 0.00 0.00 91 1009.9
20260506060335 55 187 0.0 0.0 0.00 0.00 0.00 91 1010.0
20260506051307 55 187 0.0 0.0 0.00 0.00 0.00 90 1009.9
20260506050804 55 187 0.0 0.0 0.00 0.00 0.00 89 1009.8
20260506050302 55 187 0.0 0.0 0.00 0.00 0.00 89 1009.8
20260506044752 55 191 0.0 0.0 0.00 0.00 0.00 89 1009.7
20260506044249 55 190 0.0 0.0 0.00 0.00 0.00 89 1009.7
20260506043747 55 189 0.0 0.0 0.00 0.00 0.00 89 1009.7
20260506043244 55 195 0.0 0.0 0.00 0.00 0.00 89 1009.6
20260506042743 55 196 0.0 0.0 0.00 0.00 0.00 89 1009.4
20260506042241 55 196 0.0 0.0 0.00 0.00 0.00 88 1009.4
20260506041739 55 195 0.0 0.0 0.00 0.00 0.00 88 1009.5
20260506041236 55 195 0.0 0.0 0.00 0.00 0.00 88 1009.4
20260506040734 55 195 0.0 0.0 0.00 0.00 0.00 88 1009.3
20260506040231 55 195 0.0 0.0 0.00 0.00 0.00 88 1009.1
20260506035727 55 194 0.0 0.0 0.00 0.00 0.00 87 1009.2
20260506035224 55 195 0.0 0.0 0.00 0.00 0.00 87 1009.1
20260506034721 56 195 0.0 0.0 0.00 0.00 0.00 86 1009.2
20260506034218 56 195 0.0 0.0 0.00 0.00 0.00 86 1008.9
20260506033715 56 195 0.0 0.0 0.00 0.00 0.00 86 1009.0
20260506033212 56 197 0.0 0.0 0.00 0.00 0.00 86 1009.1
20260506032709 56 197 0.0 0.0 0.00 0.00 0.00 85 1008.8
20260506032206 56 186 0.0 0.0 0.00 0.00 0.00 84 1009.1
20260506031703 56 186 0.0 0.0 0.00 0.00 0.00 84 1008.8
20260506031200 56 186 0.0 0.0 0.00 0.00 0.00 83 1008.6
20260506030659 57 184 0.0 0.0 0.00 0.00 0.00 83 1008.6
20260506030155 57 187 0.0 0.0 0.00 0.00 0.00 83 1008.6
20260506025646 57 189 0.0 0.0 0.00 0.00 0.00 83 1008.5